Weather History for KAEL - October, 2013

Change the Weather History Date:

Monday, October 7, 2013

  Actual Average Record
Temperature  
Mean Temperature 54 °F -  
Max Temperature 66 °F 62 °F 84 °F (1997)
Min Temperature 42 °F 40 °F 23 °F (2012)
Degree Days  
Heating Degree Days 11    
Growing Degree Days 4 (Base 50)    
Moisture  
Dew Point 42 °F    
Average Humidity 70    
Maximum Humidity 100    
Minimum Humidity 32    
Precipitation  
Precipitation 0.00 in - - ()
Sea Level Pressure  
Sea Level Pressure 29.95 in    
Wind  
Wind Speed 4 mph (West)    
Max Wind Speed 8 mph    
Max Gust Speed -    
Visibility 10 miles    
Events      
Averages and records for this station are not official NWS values.
T = Trace of Precipitation, MM = Missing Value Source: NWS Daily Summary

Daily Weather History Graph

Daily Weather History Graph

Search for Another Location

Airport or City:

Trip Planner

Search our weather history database for the weather conditions in past years. The results will help you decide how hot, cold, wet, or windy it might be!

Date:

Astronomy

Oct. 07, 2013 Rise Set
Actual Time 7:18 AM CDT 6:43 PM CDT
Civil Twilight 6:49 AM CDT 7:11 PM CDT
Nautical Twilight 6:16 AM CDT 7:45 PM CDT
Astronomical Twilight 5:43 AM CDT 8:18 PM CDT
Moon 10:14 AM CDT (10/7) 8:22 PM CDT (10/7)
Length of Visible Light 12h 22m
Length of Day
11h 24m
Waxing Crescent, 9% of the Moon is Illuminated
Oct 7
Waxing Crescent
Oct 11
First Quarter
Oct 18
Full
Oct 26
Last Quarter
Nov 3
New

Hourly Weather History & Observations

Time (CDT) Temp. Windchill Dew Point Humidity Pressure Visibility Wind Dir Wind Speed Gust Speed Precip Events Conditions
12:10 AM 46.4 °F 44.3 °F 46.4 °F 100% 29.87 in 10.0 mi WNW 4.6 mph - N/A   Clear
12:31 AM 46.4 °F 43.5 °F 44.6 °F 93% 29.87 in 10.0 mi WNW 5.8 mph - N/A   Clear
12:51 AM 46.4 °F 43.5 °F 44.6 °F 93% 29.87 in 10.0 mi WNW 5.8 mph - N/A   Clear
1:10 AM 46.4 °F 43.5 °F 44.6 °F 93% 29.88 in 10.0 mi WNW 5.8 mph - N/A   Clear
1:31 AM 44.6 °F 41.4 °F 42.8 °F 93% 29.88 in 10.0 mi WNW 5.8 mph - N/A   Clear
1:51 AM 44.6 °F 41.4 °F 42.8 °F 93% 29.88 in 10.0 mi WNW 5.8 mph - N/A   Clear
2:11 AM 44.6 °F 42.2 °F 42.8 °F 93% 29.89 in 10.0 mi West 4.6 mph - N/A   Clear
2:31 AM 44.6 °F 42.2 °F 42.8 °F 93% 29.89 in 10.0 mi West 4.6 mph - N/A   Clear
2:50 AM 44.6 °F 42.2 °F 42.8 °F 93% 29.88 in 10.0 mi West 4.6 mph - N/A   Clear
3:11 AM 44.6 °F - 41.0 °F 87% 29.88 in 10.0 mi Calm Calm - N/A   Clear
3:31 AM 42.8 °F 41.1 °F 41.0 °F 93% 29.88 in 10.0 mi West 3.5 mph - N/A   Clear
3:50 AM 42.8 °F 40.1 °F 41.0 °F 93% 29.88 in 10.0 mi West 4.6 mph - N/A   Clear
4:11 AM 44.6 °F 42.2 °F 41.0 °F 87% 29.88 in 10.0 mi West 4.6 mph - N/A   Clear
4:31 AM 44.6 °F 42.2 °F 41.0 °F 87% 29.89 in 10.0 mi West 4.6 mph - N/A   Clear
4:50 AM 44.6 °F 42.2 °F 41.0 °F 87% 29.88 in 10.0 mi West 4.6 mph - N/A   Clear
5:11 AM 44.6 °F 43.1 °F 41.0 °F 87% 29.88 in 10.0 mi West 3.5 mph - N/A   Scattered Clouds
5:31 AM 44.6 °F 43.1 °F 41.0 °F 87% 29.88 in 10.0 mi West 3.5 mph - N/A   Scattered Clouds
5:50 AM 44.6 °F 43.1 °F 41.0 °F 87% 29.88 in 10.0 mi West 3.5 mph - N/A   Clear
6:11 AM 44.6 °F - 41.0 °F 87% 29.88 in 10.0 mi Calm Calm - N/A   Clear
6:30 AM 44.6 °F 43.1 °F 41.0 °F 87% 29.88 in 10.0 mi WSW 3.5 mph - N/A   Clear
6:51 AM 44.6 °F 42.2 °F 41.0 °F 87% 29.89 in 10.0 mi West 4.6 mph - N/A   Clear
7:11 AM 44.6 °F 42.2 °F 41.0 °F 87% 29.90 in 10.0 mi West 4.6 mph - N/A   Clear
7:30 AM 44.6 °F 43.1 °F 39.2 °F 81% 29.90 in 10.0 mi West 3.5 mph - N/A   Clear
7:51 AM 44.6 °F 42.2 °F 41.0 °F 87% 29.91 in 10.0 mi West 4.6 mph - N/A   Clear
8:11 AM 46.4 °F 44.3 °F 41.0 °F 81% 29.92 in 10.0 mi West 4.6 mph - N/A   Clear
8:30 AM 46.4 °F 45.2 °F 42.8 °F 87% 29.93 in 10.0 mi West 3.5 mph - N/A   Clear
8:51 AM 48.2 °F - 42.8 °F 82% 29.94 in 10.0 mi WNW 5.8 mph - N/A   Clear
9:11 AM 48.2 °F - 42.8 °F 82% 29.94 in 10.0 mi WNW 5.8 mph - N/A   Clear
9:30 AM 50.0 °F - 42.8 °F 76% 29.95 in 10.0 mi WNW 8.1 mph - N/A   Clear
9:51 AM 51.8 °F - 42.8 °F 71% 29.95 in 10.0 mi NW 5.8 mph - N/A   Clear
10:11 AM 51.8 °F - 44.6 °F 76% 29.96 in 10.0 mi NW 4.6 mph - N/A   Clear
10:30 AM 53.6 °F - 44.6 °F 72% 29.96 in 10.0 mi WNW 3.5 mph - N/A   Clear
10:51 AM 55.4 °F - 44.6 °F 67% 29.97 in 10.0 mi West 4.6 mph - N/A   Clear
11:11 AM 55.4 °F - 46.4 °F 72% 29.98 in 10.0 mi West 3.5 mph - N/A   Clear
11:30 AM 57.2 °F - 46.4 °F 67% 29.98 in 10.0 mi WSW 5.8 mph - N/A   Clear
11:51 AM 59.0 °F - 46.4 °F 63% 29.98 in 10.0 mi NW 3.5 mph - N/A   Clear
12:11 PM 60.8 °F - 46.4 °F 59% 29.98 in 10.0 mi West 4.6 mph - N/A   Clear
12:30 PM 60.8 °F - 46.4 °F 59% 29.98 in 10.0 mi Calm Calm - N/A   Clear
12:51 PM 62.6 °F - 44.6 °F 52% 29.98 in 10.0 mi Calm Calm - N/A   Clear
1:10 PM 62.6 °F - 42.8 °F 48% 29.98 in 10.0 mi Calm Calm - N/A   Clear
1:31 PM 64.4 °F - 39.2 °F 40% 29.97 in 10.0 mi North 3.5 mph - N/A   Clear
1:50 PM 64.4 °F - 39.2 °F 40% 29.97 in 10.0 mi Calm Calm - N/A   Clear
2:11 PM 64.4 °F - 39.2 °F 40% 29.98 in 10.0 mi WNW 3.5 mph - N/A   Clear
2:31 PM 64.4 °F - 39.2 °F 40% 29.98 in 10.0 mi West 3.5 mph - N/A   Clear
2:50 PM 66.2 °F - 39.2 °F 37% 29.98 in 10.0 mi Calm Calm - N/A   Clear
3:11 PM 66.2 °F - 39.2 °F 37% 29.98 in 10.0 mi WNW 4.6 mph - N/A   Clear
3:31 PM 66.2 °F - 37.4 °F 35% 29.98 in 10.0 mi West 4.6 mph - N/A   Clear
3:50 PM 66.2 °F - 37.4 °F 35% 29.98 in 10.0 mi Calm Calm - N/A   Clear
4:11 PM 66.2 °F - 37.4 °F 35% 29.98 in 10.0 mi WSW 5.8 mph - N/A   Clear
4:31 PM 66.2 °F - 37.4 °F 35% 29.98 in 10.0 mi WSW 3.5 mph - N/A   Clear
4:50 PM 66.2 °F - 35.6 °F 32% 29.98 in 10.0 mi WSW 3.5 mph - N/A   Clear
5:11 PM 66.2 °F - 35.6 °F 32% 29.98 in 10.0 mi Calm Calm - N/A   Clear
5:31 PM 66.2 °F - 35.6 °F 32% 29.98 in 10.0 mi Calm Calm - N/A   Clear
5:50 PM 64.4 °F - 35.6 °F 34% 29.98 in 10.0 mi Calm Calm - N/A   Clear
6:11 PM 64.4 °F - 37.4 °F 37% - 10.0 mi Calm Calm - N/A   Clear
6:30 PM 60.8 °F - 44.6 °F 55% 29.98 in 10.0 mi Calm Calm - N/A   Clear
6:50 PM 59.0 °F - 42.8 °F 55% 29.98 in 10.0 mi Calm Calm - N/A   Clear
7:11 PM 55.4 °F - 44.6 °F 67% 29.98 in 10.0 mi Calm Calm - N/A   Clear
7:30 PM 55.4 °F - 46.4 °F 72% 29.99 in 10.0 mi Calm Calm - N/A   Clear
7:51 PM 53.6 °F - 44.6 °F 72% 29.99 in 10.0 mi Calm Calm - N/A   Clear
8:10 PM 51.8 °F - 46.4 °F 82% 29.99 in 10.0 mi Calm Calm - N/A   Clear
8:31 PM 51.8 °F - 44.6 °F 76% 30.00 in 10.0 mi Calm Calm - N/A   Clear
8:51 PM 51.8 °F - 46.4 °F 82% 30.00 in 10.0 mi Calm Calm - N/A   Clear
9:10 PM 50.0 °F - 44.6 °F 82% 30.00 in 10.0 mi Calm Calm - N/A   Clear
9:31 PM 48.2 °F - 46.4 °F 93% 30.01 in 10.0 mi Calm Calm - N/A   Clear
9:51 PM 51.8 °F - 44.6 °F 76% 30.00 in 10.0 mi SSE 3.5 mph - N/A   Clear
10:10 PM 51.8 °F - 42.8 °F 71% 30.01 in 10.0 mi SSE 3.5 mph - N/A   Clear
10:31 PM 53.6 °F - 42.8 °F 67% 30.01 in 10.0 mi SSE 3.5 mph - N/A   Clear
10:51 PM 53.6 °F - 42.8 °F 67% 30.01 in 10.0 mi South 3.5 mph - N/A   Clear
11:10 PM 53.6 °F - 42.8 °F 67% 30.01 in 10.0 mi SE 3.5 mph - N/A   Clear
11:31 PM 51.8 °F - 44.6 °F 76% 30.01 in 10.0 mi SSE 3.5 mph - N/A   Clear
11:51 PM 51.8 °F - 44.6 °F 76% 30.00 in 10.0 mi South 4.6 mph - N/A   Clear